Location: Cicognara
(44.9500°N, 10.4667°E)
Time: 13:33:39
(UTC+00:00)

Cosmos 2233 Rocket - Pass Details

Date: 20 June 2021
Orbit: 954 x 990 km, 82.9° (Epoch: 02 August)

Event Time Altitude Azimuth Distance (km) Brightness Sun altitude
Rises 21:33:15 0° 349° (N) 3,645 8.5 -17.4°
Reaches altitude 10° 21:35:45 10° 347° (NNW) 2,697 7.5 -17.6°
Maximum altitude 21:41:52 70° 266° (W) 1,022 4.1 -18.0°
Enters shadow 21:45:39 25° 188° (S) 1,852 5.0 -18.3°
